FW2998 Weather Reports


time (UTC)temp
F
wind
direction
speed
knots
gust
knots
rain 1hr
in
rain 24hr
in
rain mn
in
humidity
%
barometer
mb
20260902013044 85 0 0.0 0.0 0.00 0.00 0.00 73 1017.8
20260902012527 86 0 0.0 0.0 0.00 0.00 0.00 72 1017.8
20260902012024 86 0 0.0 0.0 0.00 0.00 0.00 72 1017.7
20260902011549 86 0 0.0 0.0 0.00 0.00 0.00 72 1017.6
20260902011024 86 0 0.0 0.0 0.00 0.00 0.00 71 1017.6
20260902010528 86 0 0.0 0.0 0.00 0.00 0.00 71 1017.6
20260902010043 87 0 0.0 0.0 0.00 0.00 0.00 70 1017.4
20260902005525 87 0 0.0 0.0 0.00 0.00 0.00 70 1017.4
20260902005027 87 0 0.0 0.0 0.00 0.00 0.00 70 1017.3
20260902004543 87 0 0.0 0.0 0.00 0.00 0.00 69 1017.3
20260902004024 87 0 0.0 0.0 0.00 0.00 0.00 69 1017.3
20260902003524 88 0 0.0 0.0 0.00 0.00 0.00 68 1017.1
20260902003048 88 0 0.0 0.0 0.00 0.00 0.00 67 1017.1
20260902002523 88 0 0.0 0.0 0.00 0.00 0.00 66 1017.1
20260902002026 89 0 0.0 0.0 0.00 0.00 0.00 66 1017.0
20260902001545 89 0 0.0 0.0 0.00 0.00 0.00 65 1017.0
20260902001023 89 0 0.0 0.0 0.00 0.00 0.00 65 1017.0
20260902000524 90 0 0.0 0.0 0.00 0.00 0.00 65 1017.0
20260902000048 90 0 0.0 0.0 0.00 0.00 0.00 64 1017.1
20260901235525 90 0 0.0 0.0 0.00 0.00 0.00 64 1017.1
20260901235025 91 0 0.0 0.0 0.00 0.00 0.00 63 1017.3
20260901234542 91 0 0.0 0.0 0.00 0.00 0.00 62 1017.2
20260901234025 91 0 0.0 0.0 0.00 0.00 0.00 61 1017.3
20260901233525 92 0 0.0 0.0 0.00 0.00 0.00 61 1017.1
20260901233046 92 0 0.0 0.0 0.00 0.00 0.00 60 1017.1
20260901232524 93 0 0.0 0.0 0.00 0.00 0.00 59 1017.1
20260901232025 93 0 0.0 0.0 0.00 0.00 0.00 58 1017.0
20260901231545 93 0 0.0 0.0 0.00 0.00 0.00 58 1017.1
20260901231022 94 0 0.0 0.0 0.00 0.00 0.00 56 1017.1
20260901230523 94 0 0.0 0.0 0.00 0.00 0.00 56 1017.0
20260901230042 94 0 0.0 0.0 0.00 0.00 0.00 56 1017.1
20260901225523 95 0 0.0 0.0 0.00 0.00 0.00 54 1017.1
20260901225025 95 0 0.0 0.0 0.00 0.00 0.00 55 1017.1
20260901224551 95 0 0.0 0.0 0.00 0.00 0.00 54 1017.2
20260901224024 96 0 0.0 0.0 0.00 0.00 0.00 55 1017.2
20260901223525 96 0 0.0 0.0 0.00 0.00 0.00 53 1017.3
20260901223045 96 0 0.0 0.0 0.00 0.00 0.00 51 1017.2
20260901222521 97 0 0.0 0.0 0.00 0.00 0.00 50 1017.2
20260901222024 97 0 0.0 0.0 0.00 0.00 0.00 52 1017.1
20260901221555 97 0 0.0 0.0 0.00 0.00 0.00 50 1017.1
20260901221024 98 0 0.0 0.0 0.00 0.00 0.00 51 1017.1
20260901220526 98 0 0.0 0.0 0.00 0.00 0.00 48 1017.1
20260901220045 98 0 0.0 0.0 0.00 0.00 0.00 49 1017.1
20260901215525 98 0 0.0 0.0 0.00 0.00 0.00 50 1017.1
20260901215025 99 0 0.0 0.0 0.00 0.00 0.00 48 1017.0
20260901214557 99 0 0.0 0.0 0.00 0.00 0.00 48 1017.1
20260901214025 99 0 0.0 0.0 0.00 0.00 0.00 50 1017.2
20260901213519 99 0 0.0 0.0 0.00 0.00 0.00 47 1017.1
20260901213047 99 0 0.0 0.0 0.00 0.00 0.00 50 1017.1
20260901212525 98 0 0.0 0.0 0.00 0.00 0.00 50 1017.1
20260901212026 98 0 0.0 0.0 0.00 0.00 0.00 50 1017.1
20260901211542 98 0 0.0 0.0 0.00 0.00 0.00 49 1017.1
20260901211024 97 0 0.0 0.0 0.00 0.00 0.00 49 1017.1
20260901210526 97 0 0.0 0.0 0.00 0.00 0.00 50 1017.1
20260901210049 97 0 0.0 0.0 0.00 0.00 0.00 49 1017.0
20260901205525 97 0 0.0 0.0 0.00 0.00 0.00 52 1017.2
20260901205024 96 0 0.0 0.0 0.00 0.00 0.00 50 1017.2
20260901204546 96 0 0.0 0.0 0.00 0.00 0.00 49 1017.2
20260901204028 96 0 0.0 0.0 0.00 0.00 0.00 49 1017.3
20260901203524 96 0 0.0 0.0 0.00 0.00 0.00 52 1017.3
20260901203046 96 0 0.0 0.0 0.00 0.00 0.00 54 1017.3
20260901202525 95 0 0.0 0.0 0.00 0.00 0.00 56 1017.4
20260901202026 94 0 0.0 0.0 0.00 0.00 0.00 56 1017.4
20260901201540 94 0 0.0 0.0 0.00 0.00 0.00 57 1017.5
20260901201025 94 0 0.0 0.0 0.00 0.00 0.00 55 1017.5
20260901200526 94 0 0.0 0.0 0.00 0.00 0.00 53 1017.5
20260901200048 93 0 0.0 0.0 0.00 0.00 0.00 57 1017.5
20260901195523 94 0 0.0 0.0 0.00 0.00 0.00 57 1017.6
20260901195023 94 0 0.0 0.0 0.00 0.00 0.00 57 1017.6
20260901194553 94 0 0.0 0.0 0.00 0.00 0.00 54 1017.7
20260901194023 94 0 0.0 0.0 0.00 0.00 0.00 53 1017.7
20260901193523 94 0 0.0 0.0 0.00 0.00 0.00 56 1017.8
20260901193044 94 0 0.0 0.0 0.00 0.00 0.00 54 1017.8
20260901192524 93 0 0.0 0.0 0.00 0.00 0.00 56 1017.8
20260901192025 94 0 0.0 0.0 0.00 0.00 0.00 58 1017.9
20260901191550 94 0 0.0 0.0 0.00 0.00 0.00 57 1018.0
20260901191022 94 0 0.0 0.0 0.00 0.00 0.00 57 1018.0
20260901190529 95 0 0.0 0.0 0.00 0.00 0.00 58 1018.0
20260901190051 95 0 0.0 0.0 0.00 0.00 0.00 57 1018.0
20260901185526 94 0 0.0 0.0 0.00 0.00 0.00 57 1018.0
20260901185025 94 0 0.0 0.0 0.00 0.00 0.00 56 1018.2
20260901184550 93 0 0.0 0.0 0.00 0.00 0.00 54 1018.2
20260901184025 94 0 0.0 0.0 0.00 0.00 0.00 55 1018.3
20260901183525 94 0 0.0 0.0 0.00 0.00 0.00 57 1018.3
20260901183101 94 0 0.0 0.0 0.00 0.00 0.00 57 1018.3
20260901182526 93 0 0.0 0.0 0.00 0.00 0.00 58 1018.4
20260901182024 92 0 0.0 0.0 0.00 0.00 0.00 63 1018.4
20260901181544 92 0 0.0 0.0 0.00 0.00 0.00 60 1018.5
20260901181023 94 0 0.0 0.0 0.00 0.00 0.00 60 1018.6
20260901180528 94 0 0.0 0.0 0.00 0.00 0.00 58 1018.7
20260901180045 94 0 0.0 0.0 0.00 0.00 0.00 59 1018.7
20260901175528 93 0 0.0 0.0 0.00 0.00 0.00 60 1018.8
20260901175025 93 0 0.0 0.0 0.00 0.00 0.00 60 1018.8
20260901174545 93 0 0.0 0.0 0.00 0.00 0.00 60 1018.7
20260901174019 92 0 0.0 0.0 0.00 0.00 0.00 59 1018.8
20260901173529 92 0 0.0 0.0 0.00 0.00 0.00 60 1018.9
20260901173042 92 0 0.0 0.0 0.00 0.00 0.00 59 1019.0
20260901172526 93 0 0.0 0.0 0.00 0.00 0.00 60 1019.1
20260901172026 92 0 0.0 0.0 0.00 0.00 0.00 61 1019.1
20260901171547 91 0 0.0 0.0 0.00 0.00 0.00 63 1019.2
20260901171023 92 0 0.0 0.0 0.00 0.00 0.00 63 1019.2
20260901170519 92 0 0.0 0.0 0.00 0.00 0.00 61 1019.2
20260901170044 92 0 0.0 0.0 0.00 0.00 0.00 62 1019.3
20260901165522 91 0 0.0 0.0 0.00 0.00 0.00 63 1019.4
20260901165026 92 0 0.0 0.0 0.00 0.00 0.00 62 1019.4
20260901164541 92 0 0.0 0.0 0.00 0.00 0.00 61 1019.5
20260901164026 92 0 0.0 0.0 0.00 0.00 0.00 63 1019.5
20260901163526 91 0 0.0 0.0 0.00 0.00 0.00 62 1019.6
20260901163054 91 0 0.0 0.0 0.00 0.00 0.00 63 1019.5
20260901162521 91 0 0.0 0.0 0.00 0.00 0.00 62 1019.7
20260901162027 90 0 0.0 0.0 0.00 0.00 0.00 64 1019.7
20260901161544 91 0 0.0 0.0 0.00 0.00 0.00 65 1019.7
20260901161026 91 0 0.0 0.0 0.00 0.00 0.00 62 1019.8
20260901160527 91 0 0.0 0.0 0.00 0.00 0.00 66 1019.9
20260901160044 90 0 0.0 0.0 0.00 0.00 0.00 63 1019.9
20260901155523 90 0 0.0 0.0 0.00 0.00 0.00 63 1019.9
20260901155027 90 0 0.0 0.0 0.00 0.00 0.00 63 1019.9
20260901154608 90 0 0.0 0.0 0.00 0.00 0.00 62 1020.0
20260901154026 91 0 0.0 0.0 0.00 0.00 0.00 65 1020.1
20260901153527 91 0 0.0 0.0 0.00 0.00 0.00 64 1020.1
20260901153047 92 0 0.0 0.0 0.00 0.00 0.00 64 1020.1
20260901152523 92 0 0.0 0.0 0.00 0.00 0.00 66 1020.0
20260901152025 91 0 0.0 0.0 0.00 0.00 0.00 63 1020.1
20260901151544 91 0 0.0 0.0 0.00 0.00 0.00 66 1020.1
20260901151025 91 0 0.0 0.0 0.00 0.00 0.00 65 1020.1
20260901150523 91 0 0.0 0.0 0.00 0.00 0.00 71 1020.1
20260901150054 90 0 0.0 0.0 0.00 0.00 0.00 69 1020.1
20260901145525 89 0 0.0 0.0 0.00 0.00 0.00 68 1020.1
20260901145026 89 0 0.0 0.0 0.00 0.00 0.00 69 1020.2
20260901144543 89 0 0.0 0.0 0.00 0.00 0.00 72 1020.3
20260901144024 89 0 0.0 0.0 0.00 0.00 0.00 71 1020.2
20260901143525 88 0 0.0 0.0 0.00 0.00 0.00 73 1020.3
20260901143049 88 0 0.0 0.0 0.00 0.00 0.00 73 1020.3
20260901142522 87 0 0.0 0.0 0.00 0.00 0.00 73 1020.3
20260901142023 88 0 0.0 0.0 0.00 0.00 0.00 74 1020.3
20260901141555 87 0 0.0 0.0 0.00 0.00 0.00 75 1020.2
20260901141025 87 0 0.0 0.0 0.00 0.00 0.00 77 1020.2
20260901140523 86 0 0.0 0.0 0.00 0.00 0.00 78 1020.2
20260901140053 86 0 0.0 0.0 0.00 0.00 0.00 78 1020.1
20260901135525 85 0 0.0 0.0 0.00 0.00 0.00 80 1020.1
20260901135020 85 0 0.0 0.0 0.00 0.00 0.00 79 1020.1
20260901134545 84 0 0.0 0.0 0.00 0.00 0.00 80 1020.1
20260901134020 84 0 0.0 0.0 0.00 0.00 0.00 82 1020.0
20260901133523 83 0 0.0 0.0 0.00 0.00 0.00 85 1020.0
20260901133043 82 0 0.0 0.0 0.00 0.00 0.00 86 1020.0
20260901132524 81 0 0.0 0.0 0.00 0.00 0.00 88 1020.1
20260901132026 81 0 0.0 0.0 0.00 0.00 0.00 90 1020.0
20260901131545 80 0 0.0 0.0 0.00 0.00 0.00 92 1020.0
20260901131025 79 0 0.0 0.0 0.00 0.00 0.00 94 1019.9
20260901130528 78 0 0.0 0.0 0.00 0.00 0.00 95 1019.9
20260901130046 78 0 0.0 0.0 0.00 0.00 0.00 95 1020.0
20260901125524 77 0 0.0 0.0 0.00 0.00 0.00 95 1020.1
20260901125024 77 0 0.0 0.0 0.00 0.00 0.00 96 1020.1
20260901124547 77 0 0.0 0.0 0.00 0.00 0.00 96 1020.1
20260901124024 76 0 0.0 0.0 0.00 0.00 0.00 96 1020.1
20260901123526 76 0 0.0 0.0 0.00 0.00 0.00 96 1020.2
20260901123044 75 0 0.0 0.0 0.00 0.00 0.00 95 1020.1
20260901122527 75 0 0.0 0.0 0.00 0.00 0.00 95 1020.1
20260901122028 75 0 0.0 0.0 0.00 0.00 0.00 95 1020.0
20260901121543 75 0 0.0 0.0 0.00 0.00 0.00 95 1019.9
20260901121025 74 0 0.0 0.0 0.00 0.00 0.00 94 1019.9
20260901120525 74 0 0.0 0.0 0.00 0.00 0.00 94 1019.9
20260901120100 74 0 0.0 0.0 0.00 0.00 0.00 94 1020.0
20260901115526 74 0 0.0 0.0 0.00 0.00 0.00 94 1020.0
20260901115028 74 0 0.0 0.0 0.00 0.00 0.00 93 1019.9
20260901114545 73 0 0.0 0.0 0.00 0.00 0.00 93 1019.9
20260901114024 73 0 0.0 0.0 0.00 0.00 0.00 93 1019.8
20260901113523 73 0 0.0 0.0 0.00 0.00 0.00 93 1019.7
20260901113054 73 0 0.0 0.0 0.00 0.00 0.00 93 1019.7
20260901112526 73 0 0.0 0.0 0.00 0.00 0.00 93 1019.6
20260901112025 73 0 0.0 0.0 0.00 0.00 0.00 93 1019.5
20260901111543 73 0 0.0 0.0 0.00 0.00 0.00 93 1019.4
20260901111026 73 0 0.0 0.0 0.00 0.00 0.00 93 1019.4
20260901110528 73 0 0.0 0.0 0.00 0.00 0.00 92 1019.4
20260901110050 73 0 0.0 0.0 0.00 0.00 0.00 92 1019.3
20260901105519 73 0 0.0 0.0 0.00 0.00 0.00 92 1019.3
20260901105020 73 0 0.0 0.0 0.00 0.00 0.00 92 1019.3
20260901104543 73 0 0.0 0.0 0.00 0.00 0.00 92 1019.3
20260901104019 73 0 0.0 0.0 0.00 0.00 0.00 92 1019.3
20260901103525 74 0 0.0 0.0 0.00 0.00 0.00 92 1019.3
20260901103054 74 0 0.0 0.0 0.00 0.00 0.00 92 1019.3
20260901102523 74 0 0.0 0.0 0.00 0.00 0.00 92 1019.3
20260901102026 74 0 0.0 0.0 0.00 0.00 0.00 92 1019.4
20260901101543 74 0 0.0 0.0 0.00 0.00 0.00 92 1019.3
20260901101025 74 0 0.0 0.0 0.00 0.00 0.00 92 1019.3
20260901100527 74 0 0.0 0.0 0.00 0.00 0.00 92 1019.1
20260901100045 74 0 0.0 0.0 0.00 0.00 0.00 92 1019.1
20260901095525 74 0 0.0 0.0 0.00 0.00 0.00 92 1019.1
20260901095025 74 0 0.0 0.0 0.00 0.00 0.00 92 1019.1
20260901094548 74 0 0.0 0.0 0.00 0.00 0.00 92 1019.1
20260901094024 74 0 0.0 0.0 0.00 0.00 0.00 92 1019.1
20260901093526 74 0 0.0 0.0 0.00 0.00 0.00 91 1019.0
20260901093050 74 0 0.0 0.0 0.00 0.00 0.00 91 1019.0
20260901092518 74 0 0.0 0.0 0.00 0.00 0.00 91 1018.9
20260901092019 74 0 0.0 0.0 0.00 0.00 0.00 91 1019.1
20260901091547 74 0 0.0 0.0 0.00 0.00 0.00 91 1019.0
20260901091019 74 0 0.0 0.0 0.00 0.00 0.00 91 1019.0
20260901090529 74 0 0.0 0.0 0.00 0.00 0.00 91 1019.1
20260901090051 74 0 0.0 0.0 0.00 0.00 0.00 91 1018.9
20260901085523 74 0 0.0 0.0 0.00 0.00 0.00 91 1019.0
20260901085025 74 0 0.0 0.0 0.00 0.00 0.00 91 1018.9
20260901084540 75 0 0.0 0.0 0.00 0.00 0.00 91 1018.9
20260901084026 75 0 0.0 0.0 0.00 0.00 0.00 91 1019.0
20260901083527 75 0 0.0 0.0 0.00 0.00 0.00 91 1019.0
20260901083046 75 0 0.0 0.0 0.00 0.00 0.00 91 1019.1
20260901082523 75 0 0.0 0.0 0.00 0.00 0.00 91 1019.1
20260901082025 75 0 0.0 0.0 0.00 0.00 0.00 91 1019.1
20260901081544 75 0 0.0 0.0 0.00 0.00 0.00 91 1019.0
20260901081026 75 0 0.0 0.0 0.00 0.00 0.00 91 1018.9
20260901080522 75 0 0.0 0.0 0.00 0.00 0.00 91 1019.0
20260901080055 75 0 0.0 0.0 0.00 0.00 0.00 91 1019.1
20260901075524 75 0 0.0 0.0 0.00 0.00 0.00 90 1019.1
20260901075024 75 0 0.0 0.0 0.00 0.00 0.00 90 1019.1
20260901074548 75 0 0.0 0.0 0.00 0.00 0.00 90 1019.2
20260901074024 75 0 0.0 0.0 0.00 0.00 0.00 90 1019.2
20260901073523 75 0 0.0 0.0 0.00 0.00 0.00 91 1019.2
20260901073045 75 0 0.0 0.0 0.00 0.00 0.00 90 1019.2
20260901072525 75 0 0.0 0.0 0.00 0.00 0.00 90 1019.3
20260901072022 75 0 0.0 0.0 0.00 0.00 0.00 90 1019.3
20260901071550 75 0 0.0 0.0 0.00 0.00 0.00 90 1019.3
20260901071023 76 0 0.0 0.0 0.00 0.00 0.00 90 1019.3
20260901070527 76 0 0.0 0.0 0.00 0.00 0.00 90 1019.3
20260901070048 76 0 0.0 0.0 0.00 0.00 0.00 90 1019.3
20260901065523 76 0 0.0 0.0 0.00 0.00 0.00 90 1019.3
20260901065024 76 0 0.0 0.0 0.00 0.00 0.00 90 1019.4
20260901064543 76 0 0.0 0.0 0.00 0.00 0.00 90 1019.4
20260901064025 76 0 0.0 0.0 0.00 0.00 0.00 89 1019.5
20260901063521 76 0 0.0 0.0 0.00 0.00 0.00 89 1019.5
20260901063050 76 0 0.0 0.0 0.00 0.00 0.00 89 1019.4
20260901062525 76 0 0.0 0.0 0.00 0.00 0.00 89 1019.5
20260901062024 76 0 0.0 0.0 0.00 0.00 0.00 89 1019.5
20260901061546 76 0 0.0 0.0 0.00 0.00 0.00 89 1019.6
20260901061024 76 0 0.0 0.0 0.00 0.00 0.00 89 1019.7
20260901060526 76 0 0.0 0.0 0.00 0.00 0.00 89 1019.8
20260901060046 76 0 0.0 0.0 0.00 0.00 0.00 89 1019.8
20260901055525 76 0 0.0 0.0 0.00 0.00 0.00 89 1019.8
20260901055025 76 0 0.0 0.0 0.00 0.00 0.00 89 1019.7
20260901054543 76 0 0.0 0.0 0.00 0.00 0.00 88 1019.7
20260901054025 76 0 0.0 0.0 0.00 0.00 0.00 88 1019.7
20260901053521 76 0 0.0 0.0 0.00 0.00 0.00 88 1019.8
20260901053045 76 0 0.0 0.0 0.00 0.00 0.00 87 1019.8
20260901052524 77 0 0.0 0.0 0.00 0.00 0.00 87 1019.8
20260901052027 77 0 0.0 0.0 0.00 0.00 0.00 87 1019.8
20260901051551 77 0 0.0 0.0 0.00 0.00 0.00 87 1019.8
20260901051018 77 0 0.0 0.0 0.00 0.00 0.00 87 1019.9
20260901050527 77 0 0.0 0.0 0.00 0.00 0.00 87 1019.8
20260901050045 77 0 0.0 0.0 0.00 0.00 0.00 87 1019.8
20260901045521 77 0 0.0 0.0 0.00 0.00 0.00 87 1019.9
20260901045023 77 0 0.0 0.0 0.00 0.00 0.00 86 1019.9
20260901044541 77 0 0.0 0.0 0.00 0.00 0.00 86 1019.9
20260901044024 77 0 0.0 0.0 0.00 0.00 0.00 86 1019.7
20260901043524 77 0 0.0 0.0 0.00 0.00 0.00 86 1019.8
20260901043044 77 0 0.0 0.0 0.00 0.00 0.00 86 1019.8
20260901042522 77 0 0.0 0.0 0.00 0.00 0.00 85 1019.8
20260901042026 78 0 0.0 0.0 0.00 0.00 0.00 85 1019.9
20260901041542 78 0 0.0 0.0 0.00 0.00 0.00 85 1019.7
20260901041023 78 0 0.0 0.0 0.00 0.00 0.00 85 1019.8
20260901040519 78 0 0.0 0.0 0.00 0.00 0.00 84 1019.8
20260901040045 78 0 0.0 0.0 0.00 0.00 0.00 84 1019.8
20260901035519 78 0 0.0 0.0 0.00 0.00 0.00 84 1019.7
20260901035023 78 0 0.0 0.0 0.00 0.00 0.00 84 1019.7
20260901034543 78 0 0.0 0.0 0.00 0.00 0.00 84 1019.8
20260901034018 78 0 0.0 0.0 0.00 0.00 0.00 84 1019.8
20260901033523 78 0 0.0 0.0 0.00 0.00 0.00 83 1019.7
20260901033045 78 0 0.0 0.0 0.00 0.00 0.00 83 1019.7
20260901032523 78 0 0.0 0.0 0.00 0.00 0.00 83 1019.5
20260901032027 79 0 0.0 0.0 0.00 0.00 0.00 83 1019.5
20260901031544 79 0 0.0 0.0 0.00 0.00 0.00 82 1019.5
20260901031018 79 0 0.0 0.0 0.00 0.00 0.00 82 1019.6
20260901030522 79 0 0.0 0.0 0.00 0.00 0.00 82 1019.5
20260901030043 79 0 0.0 0.0 0.00 0.00 0.00 82 1019.5
20260901025526 79 0 0.0 0.0 0.00 0.00 0.00 82 1019.6
20260901025026 79 0 0.0 0.0 0.00 0.00 0.00 81 1019.6
20260901024543 79 0 0.0 0.0 0.00 0.00 0.00 81 1019.5
20260901024023 79 0 0.0 0.0 0.00 0.00 0.00 81 1019.5
20260901023523 79 0 0.0 0.0 0.00 0.00 0.00 81 1019.5
20260901023044 80 0 0.0 0.0 0.00 0.00 0.00 81 1019.7
20260901022524 80 0 0.0 0.0 0.00 0.00 0.00 81 1019.6
20260901022027 80 0 0.0 0.0 0.00 0.00 0.00 81 1019.5
20260901021542 80 0 0.0 0.0 0.00 0.00 0.00 81 1019.4
20260901021022 80 0 0.0 0.0 0.00 0.00 0.00 80 1019.4
20260901020523 80 0 0.0 0.0 0.00 0.00 0.00 79 1019.4
20260901020043 80 0 0.0 0.0 0.00 0.00 0.00 79 1019.4
20260901015524 80 0 0.0 0.0 0.00 0.00 0.00 79 1019.3
20260901015025 81 0 0.0 0.0 0.00 0.00 0.00 78 1019.3
20260901014551 81 0 0.0 0.0 0.00 0.00 0.00 78 1019.3
20260901014024 81 0 0.0 0.0 0.00 0.00 0.00 77 1019.2
20260901013524 81 0 0.0 0.0 0.00 0.00 0.00 77 1019.0